map of CUC home
CUC - Airport
Location
City:  Cúcuta, Norte de Santander, Colombia
Name:Camilo Daza International Airport
ICAO:SKCC
IATA:CUC

Details
Type:Airport (Aerodrome, Airfield)
Use:International (customs port of entry)
Latitude:7°55'53"N (7.931389)
Longitude:72°30'51"W (-72.514166)
Elevation:1098 ft (335 m)
Variation:8.79°W (WMM2015 magnetic declination)
-0.13° annual change
Runways:2
Longest:7700 × 148 ft (2347 × 45 m), paved

Time
Time Zone:UTC-5
Local Time:

Weather
METAR:SKCC 241100Z VRB02KT 8000 VCFG BKN010 SCT080 21/20 A2997 RMK AD OPR IMC
TAF:SKCC 232300Z 2400/2424 VRB02KT 9999 SCT015 SCT090 PROB40
TEMPO 2409/2412 5000 BCFG SCT010
BECMG 2415/2417 36012KT TX29/2419Z TN22/2411Z

Related Locations
Nearby:
Farthest:TSY: 12374 mi / 19914 km
Tasikmalaya (Tasik) [Cibeureum (Wiriadinata)], JB, ID

Find:

   beyond  
but within

Other Information
Maps:
NOTAMs:
Links:
Sources:

  
flag of Colombia
flag of Norte de Santander
flag of Cúcuta
  

Sectional Chart

Flight Planning
at skyvector.com

Satellite Image

Google Maps Satellite view

 

Copyright © 2004-2018 Karl L. Swartz. All rights reserved.
The Great Circle Mapper name and logo are trademarks of the Great Circle Mapper.
All other trademarks mentioned herein belong to their respective owners.
Please see credits for attibutions and further copyright information.

  Follow gcmap on Facebook Follow gcmap on Twitter Follow gcmap on Google+ GCmap on LinkedIn

hCard Microformat

Geo Microformat